This is the latest recevied weather packets stored in our database for station/object N3AVN. If no packets are shown the sender has not sent any weather packets the latest 10 day(s).
| Time | Temp. | Humidity | Pressure | Rain* | Wind** | Luminosity | Snow |
|---|---|---|---|---|---|---|---|
| 1777318432 | 22.22° C | 31% | 1021 hPa | 0 mm | - | 597 W/m² | - |
| 1777318129 | 22.78° C | 29% | 1021 hPa | 0 mm | - | 549 W/m² | - |
| 1777317826 | 22.78° C | 31% | 1021.1 hPa | 0 mm | - | 384 W/m² | - |
| 1777317523 | 23.89° C | 29% | 1021.1 hPa | 0 mm | - | 497 W/m² | - |
| 1777317220 | 22.78° C | 29% | 1021.4 hPa | 0 mm | - | 470 W/m² | - |
| 1777316916 | 22.22° C | 32% | 1021.3 hPa | 0 mm | - | 569 W/m² | - |
| 1777316613 | 21.67° C | 30% | 1021.5 hPa | 0 mm | - | 294 W/m² | - |
| 1777316310 | 21.67° C | 31% | 1021.4 hPa | 0 mm | - | 505 W/m² | - |
| 1777316007 | 21.67° C | 30% | 1021.4 hPa | 0 mm | - | 617 W/m² | - |
| 1777315706 | 22.22° C | 32% | 1021.4 hPa | 0 mm | - | 533 W/m² | - |
| 1777315403 | 22.78° C | 32% | 1021.3 hPa | 0 mm | - | 603 W/m² | - |
| 1777315101 | 21.67° C | 32% | 1021.7 hPa | 0 mm | - | 497 W/m² | - |
| 1777314801 | 22.22° C | 32% | 1021.5 hPa | 0 mm | - | 599 W/m² | - |
| 1777314498 | 21.11° C | 34% | 1021.7 hPa | 0 mm | - | 640 W/m² | - |
| 1777314195 | 22.22° C | 31% | 1021.8 hPa | 0 mm | - | 703 W/m² | - |
| 1777313893 | 22.78° C | 33% | 1021.8 hPa | 0 mm | - | 678 W/m² | - |
| 1777313589 | 22.22° C | 33% | 1022.1 hPa | 0 mm | - | 673 W/m² | - |
| 1777313288 | 21.67° C | 35% | 1022 hPa | 0 mm | - | 449 W/m² | - |
| 1777312983 | 21.67° C | 32% | 1021.8 hPa | 0 mm | - | 602 W/m² | - |
| 1777312680 | 22.78° C | 34% | 1022.1 hPa | 0 mm | - | 631 W/m² | - |
| 1777312377 | 21.67° C | 37% | 1021.9 hPa | 0 mm | - | 685 W/m² | - |
| 1777312074 | 22.78° C | 32% | 1022.3 hPa | 0 mm | - | 679 W/m² | - |
| 1777311771 | 21.67° C | 34% | 1022.2 hPa | 0 mm | - | 586 W/m² | - |
| 1777311468 | 21.67° C | 35% | 1022.2 hPa | 0 mm | - | 696 W/m² | - |
| 1777311165 | 22.22° C | 36% | 1022.2 hPa | 0 mm | - | 675 W/m² | - |
* Rain latest hour (hover to see other rain measurements)
** Current wind speed in m/s (hover to see current wind gust speed)